Ono, PA

2:16 PM EST on February 10, 2016 (GMT -0500)
Muir Army Air Field

Weather History for KMUI - October, 2012

Change the Weather History Date:

Tuesday, October 2, 2012

  Actual Average Record
Temperature  
Mean Temperature 60 °F -  
Max Temperature 62 °F 66 °F 84 °F (2002)
Min Temperature 57 °F 48 °F 35 °F (1997)
Degree Days  
Heating Degree Days 6    
Growing Degree Days 10 (Base 50)    
Moisture  
Dew Point 59 °F    
Average Humidity 95    
Maximum Humidity 100    
Minimum Humidity 82    
Precipitation  
Precipitation 0.49 in - - ()
Sea Level Pressure  
Sea Level Pressure 29.98 in    
Wind  
Wind Speed 2 mph (NE)    
Max Wind Speed 9 mph    
Max Gust Speed -    
Visibility 5 miles    
Events Rain    
Averages and records for this station are not official NWS values.
T = Trace of Precipitation, MM = Missing Value Source: NWS Daily Summary

Daily Weather History Graph

Daily Weather History Graph

Search for Another Location

Airport or City:

Trip Planner

Search our weather history database for the weather conditions in past years. The results will help you decide how hot, cold, wet, or windy it might be!

Date:

Astronomy

Oct. 02, 2012 Rise Set
Actual Time 7:04 AM EDT 6:46 PM EDT
Civil Twilight 6:36 AM EDT 7:13 PM EDT
Nautical Twilight 6:05 AM EDT 7:44 PM EDT
Astronomical Twilight 5:33 AM EDT 8:16 PM EDT
Moon 7:56 PM EDT (10/2) 9:29 AM EDT (10/2)
Length of Visible Light 12h 36m
Length of Day
11h 41m
Waning Gibbous, 94% of the Moon is Illuminated
Oct 2
Waning Gibbous
Oct 8
Last Quarter
Oct 15
New
Oct 21
First Quarter
Oct 29
Full

Hourly Weather History & Observations

Time (EDT) Temp. Dew Point Humidity Pressure Visibility Wind Dir Wind Speed Gust Speed Precip Events Conditions
12:55 AM 57.6 °F 54.1 °F 88% 29.96 in 10.0 mi Calm Calm - N/A   Overcast
1:11 AM 57.2 °F 53.6 °F 88% 29.95 in 10.0 mi East 3.5 mph - N/A   Light Drizzle
1:27 AM 57.2 °F 53.6 °F 88% 29.96 in 10.0 mi Calm Calm - N/A   Overcast
1:55 AM 58.1 °F 54.9 °F 89% 29.97 in 10.0 mi Calm Calm - 0.00 in   Overcast
2:55 AM 58.5 °F 54.7 °F 87% 29.97 in 10.0 mi Calm Calm - N/A   Overcast
3:05 AM 59.0 °F 55.4 °F 88% 29.97 in 10.0 mi Calm Calm - N/A   Overcast
3:26 AM 59.0 °F 55.4 °F 88% 29.96 in 10.0 mi Calm Calm - N/A   Overcast
3:48 AM 59.0 °F 55.4 °F 88% 29.96 in 10.0 mi Calm Calm - N/A   Overcast
3:55 AM 58.5 °F 54.7 °F 87% 29.96 in 10.0 mi Calm Calm - N/A   Overcast
4:55 AM 58.6 °F 55.0 °F 88% 29.95 in 10.0 mi NE 3.5 mph - N/A   Overcast
5:08 AM 59.0 °F 55.4 °F 88% 29.96 in 10.0 mi Calm Calm - N/A   Overcast
5:31 AM 59.0 °F 53.6 °F 82% 29.96 in 10.0 mi Calm Calm - N/A   Light Drizzle
5:51 AM 59.0 °F 55.4 °F 88% 29.96 in 10.0 mi Calm Calm - N/A   Light Drizzle
5:55 AM 58.8 °F 54.9 °F 87% 29.96 in 10.0 mi Calm Calm - 0.00 in   Light Drizzle
6:01 AM 59.0 °F 55.4 °F 88% 29.96 in 10.0 mi NNE 3.5 mph - N/A   Overcast
6:04 AM 59.0 °F 55.4 °F 88% 29.96 in 10.0 mi Calm Calm - N/A   Light Drizzle
6:55 AM 58.1 °F 55.6 °F 91% 29.97 in 9.0 mi Calm Calm - 0.01 in Rain Light Rain
7:06 AM 57.2 °F 55.4 °F 94% 29.96 in 3.0 mi North 2.3 mph - N/A Rain Rain
7:07 AM 57.2 °F 55.4 °F 94% 29.97 in 2.5 mi North 3.5 mph - N/A Rain Heavy Rain
7:13 AM 57.2 °F 55.4 °F 94% 29.97 in 3.0 mi North 3.5 mph - N/A Rain Light Rain
7:50 AM 57.2 °F 57.2 °F 100% 29.98 in 7.0 mi Calm Calm - N/A   Overcast
7:55 AM 57.7 °F 56.7 °F 96% 29.98 in 7.0 mi Calm Calm - 0.06 in   Overcast
8:14 AM 57.2 °F 55.4 °F 94% 29.99 in 10.0 mi NNE 4.6 mph - N/A   Light Drizzle
8:38 AM 59.0 °F 55.4 °F 88% 29.99 in 10.0 mi NNE 3.5 mph - N/A   Overcast
8:55 AM 58.5 °F 55.8 °F 91% 29.99 in 6.0 mi North 4.6 mph - 0.00 in   Overcast
9:06 AM 59.0 °F 55.4 °F 88% 29.98 in 5.0 mi Calm Calm - N/A   Drizzle
9:16 AM 59.0 °F 55.4 °F 88% 29.99 in 5.0 mi NNE 3.5 mph - N/A   Overcast
9:27 AM 59.0 °F 55.4 °F 88% 29.99 in 4.0 mi North 4.6 mph - N/A Rain Light Rain
9:46 AM 59.0 °F 57.2 °F 94% 30.00 in 2.5 mi NNE 3.5 mph - N/A Rain Rain
9:55 AM 58.5 °F 56.7 °F 94% 30.01 in 2.5 mi NNW 3.5 mph - 0.05 in Rain Light Rain
10:02 AM 59.0 °F 55.4 °F 88% 30.02 in 1.8 mi Calm Calm - N/A Rain Light Rain
10:03 AM 59.0 °F 55.4 °F 88% 30.02 in 1.2 mi Calm Calm - N/A Rain Light Rain
10:04 AM 59.0 °F 55.4 °F 88% 30.02 in 1.0 mi Calm Calm - N/A Rain Heavy Rain
10:06 AM 59.0 °F 55.4 °F 88% 30.01 in 0.8 mi Calm Calm - N/A Rain Heavy Rain
10:13 AM 59.0 °F 57.2 °F 94% 30.01 in 1.0 mi Calm Calm - N/A Rain Rain
10:14 AM 59.0 °F 57.2 °F 94% 30.01 in 1.2 mi Calm Calm - N/A Rain Rain
10:15 AM 59.0 °F 57.2 °F 94% 30.01 in 1.5 mi Calm Calm - N/A Rain Rain
10:16 AM 59.0 °F 57.2 °F 94% 30.01 in 1.8 mi Calm Calm - N/A Rain Light Rain
10:19 AM 59.0 °F 57.2 °F 94% 30.01 in 2.0 mi Calm Calm - N/A Rain Light Rain
10:55 AM 58.5 °F 57.9 °F 98% 30.01 in 2.5 mi NE 3.5 mph - 0.15 in Rain Light Rain
10:59 AM 59.0 °F 57.2 °F 94% 30.01 in 1.8 mi ENE 3.5 mph - N/A Rain Light Rain
11:02 AM 59.0 °F 57.2 °F 94% 30.00 in 1.5 mi NE 4.6 mph - N/A Rain Light Rain
11:08 AM 59.0 °F 57.2 °F 94% 30.00 in 1.8 mi NE 4.6 mph - N/A Rain Light Rain
11:10 AM 59.0 °F 57.2 °F 94% 30.00 in 2.0 mi ENE 4.6 mph - N/A Rain Light Rain
11:14 AM 59.0 °F 57.2 °F 94% 30.00 in 3.0 mi NE 4.6 mph - N/A Rain Light Rain
11:21 AM 59.0 °F 59.0 °F 100% 29.99 in 4.0 mi NE 4.6 mph - N/A Rain Light Rain
11:25 AM 59.0 °F 59.0 °F 100% 29.99 in 4.0 mi ENE 6.9 mph - N/A Rain Light Rain
11:27 AM 59.0 °F 59.0 °F 100% 29.99 in 4.0 mi Variable 6.9 mph - N/A Rain Light Rain
11:36 AM 59.0 °F 59.0 °F 100% 29.99 in 5.0 mi ENE 5.8 mph - N/A Rain Light Rain
11:37 AM 59.0 °F 59.0 °F 100% 29.99 in 5.0 mi ENE 6.9 mph - N/A Rain Light Rain
11:41 AM 59.0 °F 59.0 °F 100% 29.99 in 5.0 mi ENE 4.6 mph - N/A Rain Light Rain
11:52 AM 59.0 °F 59.0 °F 100% 29.99 in 7.0 mi ENE 4.6 mph - N/A   Overcast
11:55 AM 59.5 °F 58.6 °F 97% 29.99 in 8.0 mi Variable 3.5 mph - 0.06 in   Overcast
12:15 PM 60.8 °F 59.0 °F 94% 29.99 in 10.0 mi ENE 5.8 mph - N/A   Overcast
12:39 PM 60.8 °F 59.0 °F 94% 29.99 in 10.0 mi ENE 5.8 mph - N/A   Light Drizzle
12:55 PM 60.8 °F 59.2 °F 94% 29.99 in 10.0 mi NE 4.6 mph - 0.00 in   Overcast
1:05 PM 60.8 °F 59.0 °F 94% 29.98 in 10.0 mi ENE 6.9 mph - N/A   Light Drizzle
1:08 PM 60.8 °F 59.0 °F 94% 29.98 in 7.0 mi ENE 8.1 mph - N/A   Light Drizzle
1:18 PM 60.8 °F 59.0 °F 94% 29.98 in 5.0 mi ENE 5.8 mph - N/A Rain Light Rain
1:24 PM 60.8 °F 59.0 °F 94% 29.97 in 7.0 mi ENE 5.8 mph - N/A   Light Drizzle
1:29 PM 60.8 °F 59.0 °F 94% 29.97 in 4.0 mi ENE 6.9 mph - N/A Rain Light Rain
1:34 PM 60.8 °F 59.0 °F 94% 29.97 in 2.5 mi ENE 6.9 mph - N/A Rain Light Rain
1:39 PM 60.8 °F 59.0 °F 94% 29.97 in 3.0 mi Variable 4.6 mph - N/A Rain Light Rain
1:53 PM 60.8 °F 59.0 °F 94% 29.96 in 2.5 mi Variable 5.8 mph - N/A Rain Light Rain
1:55 PM 60.6 °F 59.7 °F 97% 29.97 in 2.5 mi Variable 5.8 mph - 0.08 in Rain Rain
2:00 PM 60.8 °F 59.0 °F 94% 29.96 in 3.0 mi ENE 9.2 mph - N/A Rain Light Rain
2:04 PM 60.8 °F 59.0 °F 94% 29.97 in 5.0 mi ENE 6.9 mph - N/A Rain Light Rain
2:13 PM 60.8 °F 59.0 °F 94% 29.96 in 7.0 mi ENE 5.8 mph - N/A Rain Light Rain
2:22 PM 60.8 °F 60.8 °F 100% 29.96 in 9.0 mi ENE 6.9 mph - N/A Rain Light Rain
2:30 PM 60.8 °F 60.8 °F 100% 29.96 in 8.0 mi ENE 4.6 mph - N/A Rain Light Rain
2:45 PM 60.8 °F 60.8 °F 100% 29.96 in 10.0 mi ENE 4.6 mph - N/A   Overcast
2:55 PM 61.5 °F 60.4 °F 96% 29.96 in 10.0 mi East 5.8 mph - 0.03 in   Overcast
3:19 PM 60.8 °F 60.8 °F 100% 29.96 in 6.0 mi ENE 9.2 mph - N/A   Overcast
3:38 PM 60.8 °F 60.8 °F 100% 29.94 in 7.0 mi ENE 6.9 mph - N/A   Overcast
3:50 PM 60.8 °F 60.8 °F 100% 29.95 in 5.0 mi East 5.8 mph - N/A   Light Drizzle
3:54 PM 60.8 °F 60.8 °F 100% 29.95 in 5.0 mi ENE 6.9 mph - N/A   Light Drizzle
3:55 PM 61.5 °F 60.3 °F 96% 29.95 in 5.0 mi ENE 5.8 mph - 0.00 in   Light Drizzle
3:58 PM 60.8 °F 60.8 °F 100% 29.95 in 5.0 mi ENE 8.1 mph - N/A   Overcast
4:05 PM 60.8 °F 60.8 °F 100% 29.94 in 7.0 mi Variable 4.6 mph - N/A   Overcast
4:55 PM 61.5 °F 60.6 °F 97% 29.94 in 7.0 mi ENE 4.6 mph - 0.00 in   Overcast
4:56 PM 60.8 °F 60.8 °F 100% 29.94 in 7.0 mi Variable 4.6 mph - N/A   Overcast
5:13 PM 60.8 °F 60.8 °F 100% 29.94 in 10.0 mi ENE 5.8 mph - N/A   Overcast
5:55 PM 62.1 °F 61.2 °F 97% 29.94 in 10.0 mi ENE 4.6 mph - N/A   Overcast
6:55 PM 62.1 °F 61.2 °F 97% 29.96 in 7.0 mi ENE 3.5 mph - N/A   Overcast
6:56 PM 62.6 °F 60.8 °F 94% 29.96 in 6.0 mi ENE 3.5 mph - N/A   Light Drizzle
7:09 PM 62.6 °F 60.8 °F 94% 29.96 in 4.0 mi Calm Calm - N/A   Overcast
7:15 PM 62.6 °F 60.8 °F 94% 29.96 in 5.0 mi ENE 3.5 mph - N/A   Overcast
7:29 PM 62.6 °F 60.8 °F 94% 29.96 in 7.0 mi Calm Calm - N/A   Overcast
7:44 PM 62.6 °F 60.8 °F 94% 29.96 in 5.0 mi ENE 4.6 mph - N/A   Light Drizzle
7:50 PM 62.6 °F 60.8 °F 94% 29.96 in 3.0 mi ENE 3.5 mph - N/A   Light Drizzle
7:52 PM 62.6 °F 60.8 °F 94% 29.96 in 2.5 mi Calm Calm - N/A   Light Drizzle
7:55 PM 61.9 °F 61.5 °F 99% 29.96 in 2.5 mi Calm Calm - 0.02 in   Light Drizzle
8:06 PM 62.6 °F 60.8 °F 94% 29.96 in 3.0 mi Calm Calm - N/A   Light Drizzle
8:07 PM 62.6 °F 60.8 °F 94% 29.96 in 3.0 mi Calm Calm - N/A   Overcast
8:15 PM 62.6 °F 60.8 °F 94% 29.96 in 2.5 mi NE 3.5 mph - N/A   Overcast
8:25 PM 62.6 °F 60.8 °F 94% 29.96 in 3.0 mi ENE 3.5 mph - N/A   Overcast
8:39 PM 62.6 °F 62.6 °F 100% 29.97 in 4.0 mi Calm Calm - N/A   Overcast
8:50 PM 62.6 °F 62.6 °F 100% 29.97 in 3.0 mi Calm Calm - N/A   Overcast
8:55 PM 62.1 °F 61.9 °F 99% 29.98 in 4.0 mi Calm Calm - 0.00 in   Overcast
9:16 PM 62.6 °F 62.6 °F 100% 29.98 in 2.5 mi Calm Calm - N/A   Overcast
9:30 PM 62.6 °F 62.6 °F 100% 29.98 in 2.0 mi Calm Calm - N/A   Overcast
9:39 PM 62.6 °F 62.6 °F 100% 29.98 in 1.8 mi Calm Calm - N/A   Overcast
9:50 PM 62.6 °F 62.6 °F 100% 29.99 in 2.0 mi Calm Calm - N/A   Light Drizzle
9:54 PM 62.6 °F 62.6 °F 100% 29.99 in 1.8 mi Calm Calm - N/A   Light Drizzle
9:55 PM 62.2 °F 61.9 °F 99% 29.99 in 1.8 mi Calm Calm - 0.00 in   Light Drizzle
9:59 PM 62.6 °F 62.6 °F 100% 29.99 in 1.5 mi Calm Calm - N/A   Light Drizzle
10:06 PM 62.6 °F 62.6 °F 100% 29.99 in 1.8 mi Calm Calm - N/A   Light Drizzle
10:09 PM 62.6 °F 62.6 °F 100% 29.99 in 1.8 mi Calm Calm - N/A   Overcast
10:13 PM 62.6 °F 62.6 °F 100% 29.99 in 1.8 mi Calm Calm - N/A   Light Drizzle
10:15 PM 62.6 °F 62.6 °F 100% 29.99 in 1.5 mi Calm Calm - N/A   Light Drizzle
10:24 PM 62.6 °F 62.6 °F 100% 29.99 in 1.8 mi Calm Calm - N/A   Light Drizzle
10:28 PM 62.6 °F 62.6 °F 100% 29.99 in 2.0 mi Calm Calm - N/A   Light Drizzle
10:45 PM 62.6 °F 62.6 °F 100% 29.99 in 1.8 mi Calm Calm - N/A   Light Drizzle
10:50 PM 62.6 °F 62.6 °F 100% 29.99 in 1.5 mi Calm Calm - N/A   Light Drizzle
10:55 PM 62.2 °F 61.9 °F 99% 29.99 in 1.5 mi Calm Calm - 0.02 in   Light Drizzle
10:57 PM 62.6 °F 62.6 °F 100% 29.99 in 1.8 mi Calm Calm - N/A   Light Drizzle
10:59 PM 62.6 °F 62.6 °F 100% 29.99 in 1.8 mi Calm Calm - N/A   Light Drizzle
11:01 PM 62.6 °F 62.6 °F 100% 30.00 in 1.8 mi Calm Calm - N/A   Overcast
11:02 PM 62.6 °F 62.6 °F 100% 30.00 in 2.0 mi Calm Calm - N/A   Overcast
11:08 PM 62.6 °F 62.6 °F 100% 30.00 in 3.0 mi Calm Calm - N/A   Overcast
11:14 PM 62.6 °F 62.6 °F 100% 30.00 in 3.0 mi Calm Calm - N/A   Light Drizzle
11:17 PM 62.6 °F 62.6 °F 100% 30.00 in 3.0 mi Calm Calm - N/A   Light Drizzle
11:25 PM 62.6 °F 62.6 °F 100% 30.00 in 4.0 mi Calm Calm - N/A   Overcast
11:32 PM 62.6 °F 62.6 °F 100% 30.00 in 4.0 mi Calm Calm - N/A   Overcast
11:55 PM 62.4 °F 62.1 °F 99% 29.99 in 4.0 mi Calm Calm - 0.01 in   Overcast